Satellite-Ground Cal/Val Site Overpasses Predictions

Prediction of Satellite NPP Overpassing Cal/Val Site: Antarctic Dome C

Ground Cal/Val Site Location: Latitude: -75.10, Longitude: 123.35; Satellite-Ground Site NADIR distance within 100 km.

Table of predicted overpasses for the next 14.0 days since TLE Epoch: 8/6/2022
Interval Starting Time Ending Time Minimum Distance Time Minimum Distance (km)
1 08/07/2022 14:55:33 08/07/2022 14:56:02 08/07/2022 14:55:48 23.33
2 08/08/2022 14:36:51 08/08/2022 14:37:06 08/08/2022 14:36:59 83.82
3 08/09/2022 07:38:25 08/09/2022 07:38:52 08/09/2022 07:38:38 36.86
4 08/10/2022 07:19:39 08/10/2022 07:19:59 08/10/2022 07:19:49 73.05
5 08/12/2022 15:01:56 08/12/2022 15:02:19 08/12/2022 15:02:07 60.62
6 08/13/2022 14:43:06 08/13/2022 14:43:32 08/13/2022 14:43:19 48.56
7 08/14/2022 07:44:47 08/14/2022 07:45:07 08/14/2022 07:44:57 72.37
8 08/15/2022 07:25:56 08/15/2022 07:26:23 08/15/2022 07:26:09 35.45
9 08/17/2022 15:08:26 08/17/2022 15:08:30 08/17/2022 15:08:28 98.69
